#�ϑ�����,���ϕ���,���ϕ���,�ő啗��,�ő啗����������,�ő�u�ԕ���,�ő�u�ԕ�����������
#(�N����),(m/s)   ,(16����),(m/s)   ,(16����)        ,(m/s)       ,(16����)            
2012/7/26 0:01,0.1,12,0.1,16,0.6,13
2012/7/26 0:02,0.2,12,0.2,12,0.8,13
2012/7/26 0:03,0.2,12,0.2,12,0.6,14
2012/7/26 0:04,0.2,12,0.2,12,0.5,15
2012/7/26 0:05,0.3,13,0.3,12,0.5,16
2012/7/26 0:06,0.3,13,0.3,12,0.1,15
2012/7/26 0:07,0.3,14,0.3,12,0.8,1
2012/7/26 0:08,0.3,14,0.3,12,0.6,1
2012/7/26 0:09,0.3,15,0.3,12,0.6,1
2012/7/26 0:10,0.3,15,0.3,12,0.3,15
2012/7/26 0:11,0.3,16,0.3,12,0.1,15
2012/7/26 0:12,0.2,16,0.2,12,0.1,15
2012/7/26 0:13,0.2,16,0.2,12,0.1,15
2012/7/26 0:14,0.1,16,0.2,12,0.1,15
2012/7/26 0:15,0.1,16,0.1,13,0.1,15
2012/7/26 0:16,0.1,16,0.1,13,0,15
2012/7/26 0:17,0.1,16,0.1,14,0.1,2
2012/7/26 0:18,0,16,0.1,14,0,8
2012/7/26 0:19,0,16,0,15,0.1,10
2012/7/26 0:20,0,15,0,15,0,11
2012/7/26 0:21,0,14,0,16,0.1,10
2012/7/26 0:22,0,13,0,16,0.1,11
2012/7/26 0:23,0,13,0,16,0,14
2012/7/26 0:24,0,13,0,16,0.3,13
2012/7/26 0:25,0,13,0,16,0.1,13
2012/7/26 0:26,0,12,0,16,0.5,11
2012/7/26 0:27,0.1,12,0.1,16,0.5,11
2012/7/26 0:28,0.1,12,0.1,12,0.4,11
2012/7/26 0:29,0.1,12,0.1,12,0.3,11
2012/7/26 0:30,0.1,12,0.1,12,0.4,14
2012/7/26 0:31,0.1,13,0.1,12,0.6,14
2012/7/26 0:32,0.2,12,0.2,13,0.4,12
2012/7/26 0:33,0.2,13,0.2,13,0.8,16
2012/7/26 0:34,0.2,13,0.2,13,0.8,16
2012/7/26 0:35,0.3,13,0.3,13,1.3,16
2012/7/26 0:36,0.4,14,0.4,13,1,1
2012/7/26 0:37,0.4,14,0.4,13,0.6,16
2012/7/26 0:38,0.4,15,0.4,13,0.3,1
2012/7/26 0:39,0.4,16,0.4,13,0.3,2
2012/7/26 0:40,0.3,16,0.4,13,0.1,2
2012/7/26 0:41,0.3,1,0.3,13,1,1
2012/7/26 0:42,0.4,1,0.4,13,1,1
2012/7/26 0:43,0.4,1,0.4,13,1.3,16
2012/7/26 0:44,0.4,1,0.4,13,0.9,16
2012/7/26 0:45,0.4,1,0.4,13,0.5,16
2012/7/26 0:46,0.3,1,0.4,14,0.5,16
2012/7/26 0:47,0.3,1,0.3,14,0.5,16
2012/7/26 0:48,0.3,16,0.3,15,0.4,14
2012/7/26 0:49,0.3,16,0.3,16,0.5,16
2012/7/26 0:50,0.4,16,0.4,1,0.9,16
2012/7/26 0:51,0.4,16,0.4,1,0.5,15
2012/7/26 0:52,0.3,16,0.4,1,0.9,16
2012/7/26 0:53,0.3,16,0.3,1,0.9,16
2012/7/26 0:54,0.3,16,0.3,1,0.1,1
2012/7/26 0:55,0.2,16,0.2,1,0.9,1
2012/7/26 0:56,0.3,16,0.3,16,1.3,16
2012/7/26 0:57,0.3,16,0.3,16,1,16
2012/7/26 0:58,0.4,16,0.4,16,0.9,16
2012/7/26 0:59,0.4,1,0.4,16,0.9,1
2012/7/26 1:00,0.4,1,0.4,16,0.9,1
2012/7/26 1:01,0.4,1,0.4,16,0.8,16
2012/7/26 1:02,0.4,1,0.4,16,0.9,2
2012/7/26 1:03,0.5,1,0.5,1,0.8,16
2012/7/26 1:04,0.5,1,0.5,1,0.6,16
2012/7/26 1:05,0.5,1,0.5,1,0.5,16
2012/7/26 1:06,0.4,1,0.5,1,0.1,16
2012/7/26 1:07,0.3,1,0.4,1,0.1,8
2012/7/26 1:08,0.3,2,0.3,1,0.1,8
2012/7/26 1:09,0.2,2,0.3,1,0.1,3
2012/7/26 1:10,0.2,2,0.2,1,0.1,2
2012/7/26 1:11,0.2,2,0.2,1,0.1,2
2012/7/26 1:12,0.1,2,0.2,1,0.1,10
2012/7/26 1:13,0.1,3,0.1,1,0,7
2012/7/26 1:14,0,5,0.1,1,0.1,10
2012/7/26 1:15,0,6,0,1,0.5,9
2012/7/26 1:16,0.1,7,0.1,1,0.8,10
2012/7/26 1:17,0.1,8,0.1,1,0.9,11
2012/7/26 1:18,0.2,9,0.2,2,0.8,10
2012/7/26 1:19,0.2,10,0.2,2,0.8,13
2012/7/26 1:20,0.2,10,0.2,2,0.6,12
2012/7/26 1:21,0.3,10,0.3,10,0.5,10
2012/7/26 1:22,0.3,10,0.3,10,0.3,9
2012/7/26 1:23,0.3,10,0.3,10,0,9
2012/7/26 1:24,0.3,10,0.3,10,0,9
2012/7/26 1:25,0.3,10,0.3,10,0.5,1
2012/7/26 1:26,0.3,10,0.3,10,0.8,2
2012/7/26 1:27,0.3,11,0.3,10,1.1,1
2012/7/26 1:28,0.3,12,0.3,10,0.8,1
2012/7/26 1:29,0.3,13,0.3,10,0.9,15
2012/7/26 1:30,0.3,15,0.3,10,0.9,15
2012/7/26 1:31,0.3,16,0.3,10,0.8,16
2012/7/26 1:32,0.4,16,0.4,16,0.5,16
2012/7/26 1:33,0.4,16,0.4,16,0.4,16
2012/7/26 1:34,0.4,16,0.4,16,0.3,15
2012/7/26 1:35,0.4,16,0.4,16,0.1,9
2012/7/26 1:36,0.4,16,0.4,16,0.4,8
2012/7/26 1:37,0.3,16,0.4,16,0.5,4
2012/7/26 1:38,0.3,1,0.3,16,0.5,4
2012/7/26 1:39,0.3,1,0.3,16,0.6,4
2012/7/26 1:40,0.3,2,0.3,16,0.6,4
2012/7/26 1:41,0.3,2,0.3,16,0.5,4
2012/7/26 1:42,0.3,3,0.3,16,0.6,4
2012/7/26 1:43,0.3,3,0.3,16,0.4,2
2012/7/26 1:44,0.3,4,0.3,16,0.1,2
2012/7/26 1:45,0.3,3,0.3,16,0.4,16
2012/7/26 1:46,0.3,3,0.3,16,0.1,16
2012/7/26 1:47,0.2,2,0.3,16,0.1,16
2012/7/26 1:48,0.2,2,0.2,1,0.4,16
2012/7/26 1:49,0.2,2,0.2,1,0.4,1
2012/7/26 1:50,0.1,1,0.2,2,0.4,16
2012/7/26 1:51,0.1,1,0.1,3,0.1,16
2012/7/26 1:52,0.1,16,0.1,3,0.5,16
2012/7/26 1:53,0.1,16,0.1,3,0.9,15
2012/7/26 1:54,0.2,16,0.2,4,0.8,14
2012/7/26 1:55,0.2,15,0.2,3,0.5,13
2012/7/26 1:56,0.2,15,0.2,3,0.8,14
2012/7/26 1:57,0.3,15,0.3,15,0.6,13
2012/7/26 1:58,0.3,15,0.3,15,0.8,13
2012/7/26 1:59,0.4,14,0.4,14,0.8,13
2012/7/26 2:00,0.4,14,0.4,14,0.5,13
2012/7/26 2:01,0.5,14,0.5,14,0.6,13
2012/7/26 2:02,0.5,13,0.5,14,0.5,14
2012/7/26 2:03,0.5,13,0.5,14,0.4,14
2012/7/26 2:04,0.4,13,0.5,14,0.5,14
2012/7/26 2:05,0.4,13,0.4,14,0.3,13
2012/7/26 2:06,0.4,13,0.4,14,0.8,12
2012/7/26 2:07,0.4,13,0.4,14,0.6,12
2012/7/26 2:08,0.4,13,0.4,14,0.6,12
2012/7/26 2:09,0.4,13,0.4,14,0.5,12
2012/7/26 2:10,0.4,13,0.4,14,0.5,12
2012/7/26 2:11,0.3,13,0.4,14,0.4,12
2012/7/26 2:12,0.3,13,0.3,13,0.5,13
2012/7/26 2:13,0.4,13,0.4,13,0.8,13
2012/7/26 2:14,0.4,13,0.4,13,0.6,13
2012/7/26 2:15,0.4,13,0.4,13,0.8,13
2012/7/26 2:16,0.4,13,0.4,13,0.8,12
2012/7/26 2:17,0.4,13,0.4,13,0.9,13
2012/7/26 2:18,0.5,13,0.5,13,0.8,12
2012/7/26 2:19,0.5,13,0.5,13,0.8,12
2012/7/26 2:20,0.5,13,0.5,13,0.6,12
2012/7/26 2:21,0.4,13,0.5,13,0.1,10
2012/7/26 2:22,0.4,12,0.4,13,0.4,10
2012/7/26 2:23,0.4,12,0.4,13,0.4,10
2012/7/26 2:24,0.3,12,0.4,13,0.3,11
2012/7/26 2:25,0.3,12,0.3,13,0.4,10
2012/7/26 2:26,0.3,11,0.3,13,0.3,10
2012/7/26 2:27,0.2,11,0.3,13,0.5,10
2012/7/26 2:28,0.2,11,0.2,13,0.4,10
2012/7/26 2:29,0.1,11,0.2,13,0.5,9
2012/7/26 2:30,0.1,10,0.1,13,0.5,9
2012/7/26 2:31,0.1,10,0.1,13,0.5,10
2012/7/26 2:32,0.1,10,0.1,12,0.3,10
2012/7/26 2:33,0.1,10,0.1,12,0.1,10
2012/7/26 2:34,0.1,10,0.1,12,0.1,10
2012/7/26 2:35,0.1,10,0.1,12,0.4,14
2012/7/26 2:36,0.1,11,0.1,11,0.3,14
2012/7/26 2:37,0.1,11,0.1,11,0.9,16
2012/7/26 2:38,0.2,12,0.2,11,0.8,15
2012/7/26 2:39,0.2,13,0.2,12,0.6,2
2012/7/26 2:40,0.2,14,0.2,12,0.6,16
2012/7/26 2:41,0.2,15,0.2,12,0.8,1
2012/7/26 2:42,0.3,16,0.3,16,0.8,2
2012/7/26 2:43,0.3,16,0.3,16,0.6,2
2012/7/26 2:44,0.3,16,0.3,16,0.1,16
2012/7/26 2:45,0.3,1,0.3,16,0.5,1
2012/7/26 2:46,0.3,1,0.3,16,0.5,2
2012/7/26 2:47,0.3,1,0.3,16,0.1,16
2012/7/26 2:48,0.2,1,0.3,16,0.5,1
2012/7/26 2:49,0.2,1,0.2,16,0.5,16
2012/7/26 2:50,0.2,1,0.2,16,0.4,16
2012/7/26 2:51,0.2,1,0.2,16,1,1
2012/7/26 2:52,0.2,1,0.2,16,0.6,16
2012/7/26 2:53,0.2,1,0.2,16,0.6,16
2012/7/26 2:54,0.2,1,0.2,16,0.1,1
2012/7/26 2:55,0.2,1,0.2,1,0,2
2012/7/26 2:56,0.1,1,0.1,1,0.1,3
2012/7/26 2:57,0.1,1,0.1,1,0.1,2
2012/7/26 2:58,0.1,1,0.1,1,0.1,11
2012/7/26 2:59,0.1,1,0.1,1,0.1,9
2012/7/26 3:00,0.1,1,0.1,1,0.1,2
2012/7/26 3:01,0.1,2,0.1,1,0.4,3
2012/7/26 3:02,0.1,2,0.1,1,0.6,3
2012/7/26 3:03,0.1,3,0.1,1,0.6,3
2012/7/26 3:04,0.1,3,0.1,1,0.5,5
2012/7/26 3:05,0.1,3,0.1,1,0.4,3
2012/7/26 3:06,0.1,3,0.1,1,0,2
2012/7/26 3:07,0.1,4,0.1,1,0,4
2012/7/26 3:08,0.1,3,0.1,1,0,4
2012/7/26 3:09,0.1,3,0.1,1,0.1,4
2012/7/26 3:10,0.1,3,0.1,1,0.3,13
2012/7/26 3:11,0.1,4,0.1,2,0.1,11
2012/7/26 3:12,0.1,4,0.1,2,0.1,11
2012/7/26 3:13,0.1,4,0.1,3,0.3,10
2012/7/26 3:14,0,5,0.1,3,0.3,10
2012/7/26 3:15,0,8,0,3,0.3,9
2012/7/26 3:16,0,9,0,3,0.1,9
2012/7/26 3:17,0,9,0,4,0,9
2012/7/26 3:18,0,10,0,3,0,9
2012/7/26 3:19,0,10,0,4,0.5,3
2012/7/26 3:20,0.1,10,0.1,3,0.5,3
2012/7/26 3:21,0.1,9,0.1,4,0.8,5
2012/7/26 3:22,0.1,8,0.1,4,0.5,5
2012/7/26 3:23,0.1,7,0.1,4,0.1,4
2012/7/26 3:24,0.1,7,0.1,10,0.1,3
2012/7/26 3:25,0.1,6,0.1,10,0.1,8
2012/7/26 3:26,0.1,6,0.1,10,0.1,8
2012/7/26 3:27,0.1,6,0.1,10,0.1,7
2012/7/26 3:28,0.1,6,0.1,10,0.3,15
2012/7/26 3:29,0.1,6,0.1,10,0,8
2012/7/26 3:30,0.1,7,0.1,9,0.1,8
2012/7/26 3:31,0.1,6,0.1,9,0.5,4
2012/7/26 3:32,0.1,6,0.1,8,0.5,3
2012/7/26 3:33,0.1,6,0.1,7,0.5,3
2012/7/26 3:34,0.1,6,0.1,7,0.3,4
2012/7/26 3:35,0.1,5,0.1,6,0.1,4
2012/7/26 3:36,0.1,4,0.1,6,0.3,2
2012/7/26 3:37,0.1,4,0.1,6,0.3,2
2012/7/26 3:38,0.1,3,0.1,6,0.1,2
2012/7/26 3:39,0.2,3,0.2,3,0.8,1
2012/7/26 3:40,0.2,3,0.2,3,0.6,1
2012/7/26 3:41,0.2,2,0.2,3,0.4,1
2012/7/26 6:13,0.5,5,0.5,5,0.5,6
2012/7/26 6:14,0.3,6,0.5,5,0.5,6
2012/7/26 6:15,0.4,6,0.4,5,0.5,6
2012/7/26 6:16,0.3,5,0.4,5,0.4,5
2012/7/26 6:17,0.2,5,0.3,5,0.1,5
2012/7/26 6:18,0.2,5,0.2,5,0,5
2012/7/26 6:19,0.2,5,0.2,5,0,5
2012/7/26 6:20,0.1,5,0.2,5,0,5
2012/7/26 6:21,0.1,5,0.1,5,0,5
2012/7/26 6:22,0.1,5,0.1,5,0,16
2012/7/26 6:23,0.1,4,0.1,5,0,16
2012/7/26 6:24,0.1,4,0.1,6,0,16
2012/7/26 6:25,0,3,0.1,6,0,1
2012/7/26 6:26,0,2,0,5,0.3,16
2012/7/26 6:27,0,2,0,5,0.5,16
2012/7/26 6:28,0,1,0,5,0.5,16
2012/7/26 6:29,0.1,1,0.1,5,0.1,1
2012/7/26 6:30,0.1,16,0.1,5,0.4,16
2012/7/26 6:31,0.1,16,0.1,5,0.1,14
2012/7/26 6:32,0.1,15,0.1,5,0.1,14
2012/7/26 6:33,0.1,15,0.1,4,0.1,14
2012/7/26 6:34,0.1,15,0.1,4,0.1,14
2012/7/26 6:35,0.1,15,0.1,1,0.9,9
2012/7/26 6:36,0.2,14,0.2,15,0.8,9
2012/7/26 6:37,0.2,14,0.2,15,0.3,12
2012/7/26 6:38,0.2,13,0.2,15,1.3,9
2012/7/26 6:39,0.2,13,0.2,15,1.1,9
2012/7/26 6:40,0.3,12,0.3,12,1.1,8
2012/7/26 6:41,0.4,11,0.4,11,0.9,9
2012/7/26 6:42,0.4,10,0.4,11,1.5,8
2012/7/26 6:43,0.5,10,0.5,10,1.1,9
2012/7/26 6:44,0.6,9,0.6,9,1.5,8
2012/7/26 6:45,0.7,9,0.7,9,1.9,8
2012/7/26 6:46,0.7,9,0.7,9,2.2,10
2012/7/26 6:47,0.8,9,0.8,9,2.2,9
2012/7/26 6:48,0.8,9,0.9,9,1.6,7
2012/7/26 6:49,0.8,9,0.8,9,0.9,10
2012/7/26 6:50,0.8,9,0.8,9,1.5,9
2012/7/26 6:51,0.9,9,0.9,9,1.9,10
2012/7/26 6:52,1,9,1,9,2.6,9
2012/7/26 6:53,1.1,9,1.1,9,2,9
2012/7/26 6:54,1.1,9,1.1,9,2.2,9
2012/7/26 6:55,1.1,9,1.1,9,2.4,9
2012/7/26 6:56,1.2,9,1.2,9,2.1,9
2012/7/26 6:57,1.2,9,1.2,9,1.8,9
2012/7/26 6:58,1.2,9,1.2,9,2.4,9
2012/7/26 6:59,1.4,9,1.4,9,3.2,9
2012/7/26 7:00,1.4,9,1.4,9,2.7,9
2012/7/26 7:01,1.5,9,1.5,9,2.1,10
2012/7/26 7:02,1.4,9,1.5,9,2.2,8
2012/7/26 7:03,1.4,9,1.4,9,2.5,9
2012/7/26 7:04,1.4,9,1.4,9,1.5,10
2012/7/26 8:46,0.3,9,0.3,9,0.3,8
2012/7/26 8:47,0.5,10,0.5,10,0.8,10
2012/7/26 8:48,0.3,10,0.4,10,0.4,6
2012/7/26 8:49,0.6,9,0.6,9,1.8,8
2012/7/26 8:50,0.6,8,0.6,9,1.1,8
2012/7/26 8:51,0.8,8,0.8,8,2.1,7
2012/7/26 8:52,0.9,8,0.9,8,1.9,8
2012/7/26 8:53,0.9,8,0.9,8,1.8,8
2012/7/26 8:54,0.9,8,0.9,8,1.9,7
2012/7/26 8:55,0.8,8,0.9,8,1,9
2012/7/26 8:56,0.9,8,0.9,8,2.4,8
2012/7/26 8:57,1,8,1,8,2.2,7
2012/7/26 8:58,1.1,8,1.1,8,1.8,8
2012/7/26 8:59,1,8,1.1,8,1,9
2012/7/26 9:00,1,8,1,8,2,8
2012/7/26 9:01,1.1,8,1.1,8,2.9,8
2012/7/26 9:02,1.1,8,1.1,8,2.2,9
2012/7/26 9:03,1.1,8,1.1,8,1.8,8
2012/7/26 9:04,1,8,1.1,8,1.8,8
2012/7/26 9:05,1.1,8,1.1,8,1.1,10
2012/7/26 9:06,1,9,1.1,8,1.3,9
2012/7/26 9:07,0.9,9,1,8,1.4,10
2012/7/26 9:08,1,9,1,8,1.6,10
2012/7/26 9:09,1,9,1,8,1.3,10
2012/7/26 9:10,1,10,1,8,1.8,9
2012/7/26 9:11,0.9,10,1,8,2.1,10
2012/7/26 9:12,0.9,10,0.9,8,2.2,9
2012/7/26 12:41,0.3,10,0.3,10,0.4,12
2012/7/26 12:42,0.6,9,0.6,9,1.3,9
2012/7/26 12:43,0.9,9,0.9,9,2.5,9
2012/7/26 12:44,1.2,9,1.2,9,2.7,9
2012/7/26 12:45,1.2,8,1.2,9,1.9,6
2012/7/26 12:46,1.3,9,1.3,8,2.7,9
2012/7/26 12:47,1.4,9,1.4,9,3,11
2012/7/26 12:48,1.5,9,1.5,9,2.7,13
2012/7/26 12:49,1.5,10,1.5,9,2.7,11
2012/7/26 12:50,1.5,10,1.5,9,2.1,10
2012/7/26 12:51,1.4,10,1.5,9,2.1,10
2012/7/26 12:52,1.5,10,1.5,9,1.4,10
2012/7/26 12:53,1.5,10,1.5,9,3.9,10
2012/7/26 12:54,1.6,10,1.6,10,3.5,7
2012/7/26 12:55,1.6,10,1.6,10,2.7,7
2012/7/26 12:56,1.5,10,1.6,10,2,6
2012/7/26 12:57,1.5,9,1.5,10,2.2,6
2012/7/26 12:58,1.5,8,1.5,10,2.5,6
2012/7/26 12:59,1.4,7,1.5,10,2,4
2012/7/26 13:00,1.4,6,1.4,10,1.8,5
2012/7/26 13:01,1.3,5,1.4,10,0.8,2
2012/7/26 13:02,1.3,6,1.4,10,1.8,6
2012/7/26 13:03,1.3,6,1.3,10,2.1,8
2012/7/26 13:04,1.2,6,1.3,10,3,9
2012/7/26 13:05,1.2,6,1.2,10,3.3,7
2012/7/26 13:06,1.3,6,1.3,9,3.9,9
2012/7/26 13:07,1.3,6,1.3,9,3.5,7
2012/7/26 13:08,1.3,7,1.3,8,3.2,7
2012/7/26 13:09,1.3,7,1.4,7,2.4,7
2012/7/26 13:10,1.4,7,1.4,6,2.6,7
2012/7/26 13:11,1.6,8,1.6,8,2.6,8
2012/7/26 13:12,1.6,8,1.6,8,2.5,7
2012/7/26 13:13,1.6,8,1.6,8,0.9,3
2012/7/26 13:14,1.5,7,1.6,8,1,7
2012/7/26 13:15,1.4,7,1.5,8,1.3,7
2012/7/26 13:16,1.3,7,1.4,8,1.8,4
2012/7/26 13:17,1.2,7,1.3,8,1.3,6
2012/7/26 13:18,1.1,6,1.2,8,2.1,7
2012/7/26 13:19,1,6,1.1,8,1.4,2
2012/7/26 13:20,1,6,1,8,1.6,2
2012/7/26 13:21,0.9,5,1,8,1.9,3
2012/7/26 13:22,0.8,5,0.9,8,1.3,3
2012/7/26 13:23,0.9,4,0.9,8,1.8,3
2012/7/26 13:24,0.9,4,0.9,7,1.5,2
2012/7/26 13:25,1,4,1,7,2.1,1
2012/7/26 13:26,1,3,1,7,2.1,2
2012/7/26 13:27,1,3,1,6,0.9,14
2012/7/26 13:28,0.9,2,1,6,0.5,1
2012/7/26 13:29,0.9,2,0.9,6,2,4
2012/7/26 13:30,0.9,2,0.9,6,2,5
2012/7/26 13:31,0.9,2,0.9,4,1.8,15
2012/7/26 13:32,0.8,2,0.9,4,1.5,2
2012/7/26 13:33,0.8,1,0.8,4,0.9,2
2012/7/26 13:34,0.7,1,0.8,4,0.6,13
2012/7/26 13:35,0.7,1,0.7,4,2.2,16
2012/7/26 13:36,0.8,1,0.8,3,3,16
2012/7/26 13:37,0.9,1,0.9,3,2.9,1
2012/7/26 13:38,0.9,1,0.9,2,1.4,1
2012/7/26 13:39,0.9,1,0.9,2,1.3,15
2012/7/26 13:40,0.9,16,0.9,2,1.4,15
2012/7/26 13:41,0.9,16,0.9,2,1.8,15
2012/7/26 13:42,1,16,1,16,1.6,15
2012/7/26 13:43,1,16,1,16,2,14
2012/7/26 13:44,1.1,16,1.1,16,2.1,15
2012/7/26 13:45,1.1,16,1.1,16,2.9,15
2012/7/26 13:46,1.1,15,1.1,16,2.7,14
2012/7/26 13:47,1.2,15,1.2,15,2.7,14
2012/7/26 13:48,1.3,15,1.3,15,3,15
2012/7/26 13:49,1.3,15,1.3,15,1.9,13
2012/7/26 13:50,1.4,14,1.4,15,2.4,13
2012/7/26 13:51,1.4,14,1.5,14,1.8,13
2012/7/26 13:52,1.4,14,1.5,14,1.6,15
2012/7/26 13:53,1.5,14,1.5,14,1.6,12
2012/7/26 13:54,1.5,14,1.5,14,1.8,12
2012/7/26 13:55,1.4,14,1.5,14,1.5,15
2012/7/26 13:56,1.3,14,1.4,14,1.5,15
2012/7/26 13:57,1.2,14,1.3,14,1.9,16
2012/7/26 13:58,1.2,14,1.2,14,2,15
2012/7/26 13:59,1.2,14,1.2,14,2.6,16
2012/7/26 14:00,1.3,15,1.3,14,2.2,2
2012/7/26 14:01,1.3,15,1.3,14,2.1,1
2012/7/26 14:02,1.3,15,1.3,14,1.9,15
2012/7/26 14:03,1.2,16,1.3,14,1.6,16
2012/7/26 14:04,1.2,16,1.2,14,1.6,1
2012/7/26 14:05,1.2,1,1.2,14,2.1,1
2012/7/26 14:06,1.2,1,1.2,14,2.2,15
2012/7/26 14:07,1.2,1,1.2,14,2,16
2012/7/26 14:08,1.2,1,1.2,14,2.9,16
2012/7/26 14:09,1.3,1,1.3,14,2.7,16
2012/7/26 14:10,1.3,1,1.3,15,3,1
2012/7/26 14:11,1.3,16,1.3,15,2.7,16
2012/7/26 14:12,1.5,16,1.5,16,3.8,16
2012/7/26 14:13,1.7,16,1.7,16,3.5,16
2012/7/26 14:14,1.8,16,1.8,16,3.3,16
2012/7/26 14:15,2.1,16,2.1,16,3.5,16
2012/7/26 14:16,2.1,16,2.1,16,3.2,1
2012/7/26 14:17,2.2,16,2.2,16,4.1,16
2012/7/26 14:18,2.3,16,2.3,16,4.2,16
2012/7/26 14:19,2.3,16,2.3,16,2.9,15
2012/7/26 14:20,2.3,16,2.3,16,3.7,16
2012/7/26 14:21,2.2,16,2.3,16,2.6,16
2012/7/26 14:22,2.2,16,2.2,16,4.5,2
2012/7/26 14:23,2.2,16,2.3,16,6,16
2012/7/26 14:24,2.3,16,2.3,16,4.7,16
2012/7/26 14:25,2.3,16,2.3,16,3.8,16
2012/7/26 14:26,2.3,16,2.3,16,4.1,15
2012/7/26 14:27,2.3,1,2.3,16,4.4,1
2012/7/26 14:28,2.3,1,2.3,16,4.1,1
2012/7/26 14:29,2.3,1,2.3,16,5,16
2012/7/26 14:30,2.3,1,2.3,16,4.5,1
2012/7/26 14:31,2.5,1,2.5,1,4.4,1
2012/7/26 14:32,2.5,1,2.5,1,3.8,16
2012/7/26 14:33,2.4,1,2.5,1,3.9,2
2012/7/26 14:34,2.3,1,2.3,1,5,3
2012/7/26 14:35,2.3,1,2.3,1,4.5,1
2012/7/26 14:36,2.3,1,2.3,1,3.8,16
2012/7/26 14:37,2.2,1,2.3,1,2.4,2
2012/7/26 14:38,2.1,1,2.1,1,3.3,1
2012/7/26 14:39,2.1,1,2.1,1,4.2,2
2012/7/26 14:40,2.2,1,2.2,1,4.2,1
2012/7/26 14:41,2.2,1,2.2,1,4.5,2
2012/7/26 14:42,2.2,1,2.3,1,3.8,1
2012/7/26 14:43,2.3,1,2.3,1,3,16
2012/7/26 14:44,2.1,1,2.2,1,3,15
2012/7/26 14:45,2.1,1,2.1,1,3.3,16
2012/7/26 14:46,2.2,1,2.2,1,4.4,2
2012/7/26 14:47,2.3,1,2.3,1,4.5,16
2012/7/26 14:48,2.3,1,2.4,1,3.3,3
2012/7/26 14:49,2.3,1,2.3,1,3.3,1
2012/7/26 14:50,2.2,1,2.3,1,2.6,1
2012/7/26 14:51,2.1,1,2.2,1,3.3,2
2012/7/26 14:52,1.9,1,2,1,1.8,3
2012/7/26 14:53,1.8,1,1.9,1,3,1
2012/7/26 14:54,1.8,1,1.8,1,3.1,2
2012/7/26 14:55,1.9,1,1.9,1,3.3,2
2012/7/26 14:56,1.7,1,1.9,1,2.6,2
2012/7/26 14:57,1.6,1,1.7,1,2.5,16
2012/7/26 14:58,1.6,1,1.6,1,3.2,1
2012/7/26 14:59,1.6,2,1.6,1,3.1,16
2012/7/26 15:00,1.6,2,1.6,1,2.9,1
2012/7/26 15:01,1.6,2,1.6,1,3.3,3
2012/7/26 15:02,1.7,2,1.7,1,3.5,2
2012/7/26 15:03,1.6,2,1.7,1,2,1
2012/7/26 15:04,1.7,2,1.7,1,3.7,2
2012/7/26 15:05,1.7,2,1.7,1,3.6,2
2012/7/26 15:06,1.8,2,1.8,2,3.1,2
2012/7/26 15:07,1.8,2,1.8,2,3.1,2
2012/7/26 15:08,1.8,2,1.8,2,2.7,16
2012/7/26 15:09,1.8,2,1.8,2,2.7,3
2012/7/26 15:10,1.8,2,1.8,2,2.6,3
2012/7/26 15:11,1.7,2,1.8,2,2.2,1
2012/7/26 15:12,1.7,2,1.7,2,2.1,16
2012/7/26 15:13,1.7,2,1.7,2,2.5,2
2012/7/26 15:14,1.7,2,1.7,2,2.2,1
2012/7/26 15:15,1.5,2,1.7,2,1.6,1
2012/7/26 15:16,1.4,2,1.5,2,2.1,3
2012/7/26 15:17,1.3,2,1.4,2,1.6,4
2012/7/26 15:18,1.2,2,1.3,2,2.1,2
2012/7/26 15:19,1.1,2,1.2,2,1,2
2012/7/26 15:20,1,2,1.1,2,1.4,1
2012/7/26 15:21,1,2,1,2,1.8,4
2012/7/26 15:22,1,2,1,2,1.8,3
2012/7/26 15:23,0.9,2,1,2,1.8,1
2012/7/26 15:24,0.9,2,0.9,2,2.2,16
2012/7/26 15:25,0.9,2,1,2,2.5,3
2012/7/26 15:26,1,2,1,2,3.2,2
2012/7/26 15:27,1.1,2,1.1,2,3.3,3
2012/7/26 15:28,1.3,2,1.3,2,3.3,2
2012/7/26 15:29,1.3,2,1.3,2,2.2,2
2012/7/26 15:30,1.4,2,1.4,2,3.1,16
2012/7/26 15:31,1.5,2,1.5,2,2.4,2
2012/7/26 15:32,1.5,2,1.5,2,2.2,3
2012/7/26 15:33,1.5,2,1.6,2,2,2
2012/7/26 15:34,1.5,2,1.5,2,2.2,16
2012/7/26 15:35,1.5,2,1.5,2,2.1,16
2012/7/26 15:36,1.4,2,1.5,2,2.2,15
2012/7/26 15:37,1.3,2,1.4,2,1.8,16
2012/7/26 15:38,1.2,1,1.3,2,1.9,15
2012/7/26 15:39,1.2,1,1.2,2,1.9,16
2012/7/26 15:40,1.2,1,1.2,2,2,1
2012/7/26 15:41,1.1,16,1.2,2,1.1,16
2012/7/26 15:42,1,16,1.1,2,1.4,15
2012/7/26 15:43,1,16,1,2,1.8,16
2012/7/26 15:44,1,16,1,2,1.5,1
2012/7/26 15:45,1,16,1,2,2,3
2012/7/26 15:46,1.1,16,1.1,2,2.1,2
2012/7/26 15:47,1.1,1,1.1,1,2.4,2
2012/7/26 15:48,1.1,1,1.1,1,1.8,1
2012/7/26 15:49,1.1,1,1.1,1,1.3,14
2012/7/26 15:50,1,1,1.1,1,1.1,3
2012/7/26 15:51,1.1,1,1.1,16,1.9,16
2012/7/26 15:52,1.1,1,1.1,16,1.8,1
2012/7/26 15:53,1.1,1,1.1,16,1.4,1
2012/7/26 15:54,1.1,1,1.1,16,1.4,1
2012/7/26 15:55,1.1,1,1.1,16,1.4,1
2012/7/26 15:56,1.1,1,1.1,16,1.1,1
2012/7/26 15:57,0.9,1,1,1,1.1,1
2012/7/26 15:58,0.9,1,0.9,1,1.1,1
2012/7/26 15:59,0.9,1,0.9,1,1.1,2
2012/7/26 16:00,0.9,1,0.9,1,1.3,3
2012/7/26 16:01,0.8,1,0.8,1,1.4,4
2012/7/26 16:02,0.8,1,0.8,1,2,16
2012/7/26 16:03,0.9,1,0.9,1,2.5,1
2012/7/26 16:04,0.9,1,0.9,1,2.4,16
2012/7/26 16:05,0.9,1,0.9,1,1.9,15
2012/7/26 16:06,0.9,16,0.9,1,1.9,16
2012/7/26 16:07,1,16,1,16,2.6,15
2012/7/26 16:08,1.1,16,1.1,16,2.4,15
2012/7/26 16:09,1.2,16,1.2,16,2.1,15
2012/7/26 16:10,1.3,16,1.3,16,2.5,1
2012/7/26 16:11,1.4,16,1.4,16,2,16
2012/7/26 16:12,1.4,16,1.4,16,3.2,14
2012/7/26 16:13,1.4,15,1.5,15,2.1,14
2012/7/26 16:14,1.5,15,1.5,15,3.1,16
2012/7/26 16:15,1.6,15,1.6,15,3,14
2012/7/26 16:16,1.7,15,1.7,15,2.9,15
2012/7/26 16:17,1.7,15,1.7,15,2.1,14
2012/7/26 16:18,1.7,15,1.7,15,2.4,14
2012/7/26 16:19,1.6,15,1.7,15,2.5,14
2012/7/26 16:20,1.6,15,1.7,15,1.4,14
2012/7/26 16:21,1.6,14,1.6,15,1.4,12
2012/7/26 16:22,1.5,14,1.6,15,1.5,13
2012/7/26 16:23,1.4,14,1.4,15,1.5,13
2012/7/26 16:24,1.3,14,1.4,15,1.5,12
2012/7/26 16:25,1.3,14,1.3,15,2.1,12
2012/7/26 16:26,1.1,13,1.2,15,1.5,13
2012/7/26 16:27,1.1,13,1.1,15,1.1,13
2012/7/26 16:28,1,13,1.1,15,1,12
2012/7/26 16:29,0.9,13,1,15,0.9,11
2012/7/26 16:30,0.8,12,0.9,15,1.1,10
2012/7/26 16:31,0.8,12,0.8,14,1.6,8
2012/7/26 16:32,0.8,12,0.8,14,2,6
2012/7/26 16:33,1,11,1,14,3.6,8
2012/7/26 16:34,1.1,10,1.1,14,4.2,7
2012/7/26 16:35,1.2,9,1.2,14,3.9,5
2012/7/26 16:36,1.5,8,1.5,8,5.1,4
2012/7/26 16:37,1.7,7,1.7,7,6,5
2012/7/26 16:38,2.1,7,2.1,7,6.7,5
2012/7/26 16:39,2.4,6,2.4,6,5.8,4
2012/7/26 16:40,2.8,6,2.8,6,6.2,6
2012/7/26 16:41,3,5,3,6,4.8,5
2012/7/26 16:42,3.2,5,3.2,5,4.8,5
2012/7/26 16:43,3.2,5,3.2,5,4.4,6
2012/7/26 16:44,3.4,5,3.4,5,5.4,5
2012/7/26 16:45,3.4,5,3.4,5,4.4,5
2012/7/26 16:46,3.3,5,3.4,5,3.8,5
2012/7/26 16:47,3.2,5,3.3,5,2.9,6
2012/7/26 16:48,3,5,3.2,5,3.6,5
2012/7/26 16:49,2.7,5,3,5,2.5,6
2012/7/26 16:50,2.5,5,2.7,5,2.4,5
2012/7/26 16:51,2.5,5,2.5,5,3.6,4
2012/7/26 16:52,2.4,4,2.5,5,2.9,5
2012/7/26 16:53,2.3,4,2.4,5,3,3
2012/7/26 16:54,2,4,2.3,5,2.9,2
2012/7/26 16:55,2,4,2,5,3.3,5
2012/7/26 16:56,2,4,2,5,4.5,5
2012/7/26 16:57,2.2,4,2.2,5,4.3,4
2012/7/26 16:58,2.3,4,2.3,5,5.4,4
2012/7/26 16:59,2.6,4,2.6,5,5,4
2012/7/26 17:00,2.7,4,2.7,4,5,5
2012/7/26 17:01,2.5,4,2.7,4,2.1,5
2012/7/26 17:02,2.5,4,2.5,4,3.9,3
2012/7/26 17:03,2.6,4,2.6,4,3.9,3
2012/7/26 17:04,2.6,4,2.6,4,2.6,4
2012/7/26 17:05,2.6,4,2.6,4,3,3
2012/7/26 17:06,2.4,4,2.6,4,1.8,3
2012/7/26 17:07,2.2,3,2.4,4,2.6,2
2012/7/26 17:08,2,3,2.2,4,2.4,1
2012/7/26 17:09,1.8,3,2,4,2.9,2
2012/7/26 17:10,1.7,2,1.8,4,2.6,1
2012/7/26 17:11,1.7,2,1.7,4,1.9,1
2012/7/26 17:12,1.5,2,1.7,4,1.3,2
2012/7/26 17:13,1.5,2,1.5,4,2.2,2
2012/7/26 17:14,1.5,2,1.5,4,3.1,1
2012/7/26 17:15,1.4,2,1.5,4,3.1,1
2012/7/26 17:16,1.5,2,1.5,4,2.5,2
2012/7/26 17:17,1.4,2,1.5,3,1.8,3
2012/7/26 17:18,1.4,2,1.4,3,2.2,4
2012/7/26 17:19,1.4,2,1.4,3,2.6,3
2012/7/26 17:20,1.4,2,1.4,2,2.2,1
2012/7/26 17:21,1.4,2,1.4,2,1.5,16
2012/7/26 17:22,1.5,2,1.5,2,3.7,1
2012/7/26 17:23,1.6,2,1.6,2,3.2,2
2012/7/26 17:24,1.5,2,1.6,2,3.3,3
2012/7/26 17:25,1.6,2,1.6,2,3,3
2012/7/26 17:26,1.6,2,1.6,2,3,1
2012/7/26 17:27,1.6,2,1.6,2,2.4,3
2012/7/26 17:28,1.6,2,1.6,2,2.4,2
2012/7/26 17:29,1.4,2,1.6,2,1.4,16
2012/7/26 17:30,1.5,2,1.5,2,2.4,3
2012/7/26 17:31,1.6,2,1.6,2,2.2,3
2012/7/26 17:32,1.5,2,1.6,2,1.5,4
2012/7/26 17:33,1.3,2,1.4,2,1.3,1
2012/7/26 17:34,1.3,2,1.3,2,2.2,2
2012/7/26 17:35,1.2,2,1.3,2,1.4,2
2012/7/26 17:36,1.1,2,1.2,2,1,3
2012/7/26 17:37,1,2,1.1,2,1.8,2
2012/7/26 17:38,1,2,1,2,1.4,2
2012/7/26 17:39,0.9,2,1,2,0.5,2
2012/7/26 17:40,0.8,2,0.9,2,1.3,16
2012/7/26 17:41,0.7,2,0.8,2,1.5,1
2012/7/26 17:42,0.7,1,0.7,2,1.3,1
2012/7/26 17:43,0.8,1,0.8,2,1.3,1
2012/7/26 17:44,0.7,1,0.8,2,0.9,2
2012/7/26 17:45,0.6,1,0.7,2,0.4,5
2012/7/26 17:46,0.6,1,0.6,2,0.8,15
2012/7/26 17:47,0.6,1,0.6,2,0.9,14
2012/7/26 17:48,0.5,16,0.6,2,1,16
2012/7/26 17:49,0.6,16,0.6,2,0.8,14
2012/7/26 17:50,0.5,16,0.6,2,0.8,13
2012/7/26 17:51,0.5,16,0.5,1,0.5,16
2012/7/26 17:52,0.5,15,0.5,1,0.5,14
2012/7/26 17:53,0.4,15,0.5,1,0.8,12
2012/7/26 17:54,0.4,14,0.4,1,1.3,10
2012/7/26 17:55,0.6,14,0.6,1,2.1,11
2012/7/26 17:56,0.7,13,0.7,13,2.1,11
2012/7/26 17:57,0.8,13,0.8,13,2,10
2012/7/26 17:58,0.9,12,0.9,13,2,10
2012/7/26 17:59,1,12,1,12,2.4,11
2012/7/26 18:00,1.2,12,1.2,12,2.5,11
2012/7/26 18:01,1.4,11,1.4,11,2.5,11
2012/7/26 18:02,1.5,11,1.5,11,2.6,11
2012/7/26 18:03,1.6,11,1.6,11,2.4,11
2012/7/26 18:04,1.7,11,1.7,11,2.7,10
2012/7/26 18:05,1.8,11,1.8,11,4.1,13
2012/7/26 18:06,1.9,11,1.9,11,4.2,13
2012/7/26 18:07,2,11,2,11,4.5,12
2012/7/26 18:08,2.1,11,2.1,11,3.8,12
2012/7/26 18:09,2.2,12,2.2,11,3.3,12
2012/7/26 18:10,2.3,12,2.3,12,3.9,10
2012/7/26 18:11,2.3,12,2.3,12,3.7,14
2012/7/26 18:12,2.3,12,2.3,12,3.7,8
2012/7/26 18:13,2.3,12,2.3,12,2.6,11
2012/7/26 18:14,2.3,12,2.3,12,3.1,9
2012/7/26 18:15,2.3,12,2.3,12,4.7,11
2012/7/26 18:16,2.2,12,2.3,12,3.9,11
2012/7/26 18:17,2.2,12,2.2,12,4.7,11
2012/7/26 18:18,2.4,12,2.4,12,7.4,10
2012/7/26 18:19,2.8,12,2.8,12,7.8,11
2012/7/26 18:20,3,11,3,11,6.4,12
2012/7/26 18:21,3,11,3,11,3.9,11
2012/7/26 18:22,3.1,11,3.1,11,4.2,12
2012/7/26 18:23,3.3,12,3.3,12,5.5,14
2012/7/26 18:24,3.6,12,3.6,12,4.9,14
2012/7/26 18:25,3.5,12,3.6,12,3.2,15
2012/7/26 18:26,3.5,13,3.5,12,2.9,4
2012/7/26 18:27,3.4,13,3.5,12,3,14
2012/7/26 18:28,3.1,14,3.4,12,2.9,14
2012/7/26 18:29,2.7,14,3.1,12,2.2,15
2012/7/26 18:30,2.3,15,2.6,12,1.3,16
2012/7/26 18:31,2.1,15,2.3,12,1.6,1
2012/7/26 18:32,2,16,2.1,12,3.1,15
2012/7/26 18:33,1.8,16,2,12,4.3,15
2012/7/26 18:34,1.9,16,1.9,12,6.8,16
2012/7/26 18:35,2.2,16,2.2,12,6.8,16
2012/7/26 18:36,2.4,16,2.4,13,6.1,16
2012/7/26 18:37,2.6,16,2.6,13,5,16
2012/7/26 18:38,2.8,16,2.8,14,5.5,16
2012/7/26 18:39,3,16,3,16,5.5,16
2012/7/26 18:40,3.4,16,3.4,16,6.1,1
2012/7/26 18:41,3.7,16,3.7,16,5.4,16
2012/7/26 18:42,3.9,16,3.9,16,5,16
2012/7/26 18:43,4,16,4,16,4.2,16
2012/7/26 18:44,3.8,16,4,16,3.2,16
2012/7/26 18:45,3.5,16,3.7,16,2.4,16
2012/7/26 18:46,3.3,16,3.5,16,3.5,16
2012/7/26 18:47,3.2,16,3.3,16,4.9,16
2012/7/26 18:48,3.1,16,3.3,16,4.3,1
2012/7/26 18:49,3.2,16,3.2,16,5.4,15
2012/7/26 18:50,3.1,16,3.2,16,5,16
2012/7/26 18:51,3,16,3.1,16,5.4,16
2012/7/26 18:52,3,16,3.1,16,4.5,16
2012/7/26 18:53,3,16,3.1,16,4.1,16
2012/7/26 18:54,3.1,16,3.1,16,4.5,15